FW9676 Weather Reports


Display with metric or nautical units.
time (UTC)temp
F
wind
direction
speed
MPH
gust
MPH
rain 1hr
in
rain 24hr
in
rain mn
in
humidity
%
barometer
mb
20260906225016 73 317 1.0 7.0 0.00 0.61 0.61 93 1013.0
20260906224534 73 9 1.0 7.0 0.00 0.61 0.61 93 1012.9
20260906224016 73 360 0.0 5.0 0.00 0.61 0.61 94 1013.0
20260906223519 73 40 2.0 5.0 0.01 0.61 0.61 94 1013.1
20260906223048 73 292 1.0 6.0 0.02 0.61 0.61 94 1013.1
20260906222515 73 355 2.0 6.0 0.02 0.61 0.61 94 1013.1
20260906222019 73 336 2.0 5.0 0.02 0.61 0.61 94 1013.2
20260906221536 73 284 2.0 4.0 0.02 0.61 0.61 94 1013.4
20260906221020 73 264 1.0 4.0 0.02 0.61 0.61 95 1013.5
20260906220519 72 13 0.0 5.0 0.02 0.61 0.61 95 1013.4
20260906220039 72 335 2.0 5.0 0.02 0.61 0.61 95 1013.3
20260906215518 72 10 2.0 4.0 0.02 0.61 0.61 95 1013.3
20260906215017 72 51 1.0 6.0 0.02 0.61 0.61 95 1013.2
20260906214601 72 332 2.0 6.0 0.02 0.61 0.61 95 1013.3
20260906214017 72 352 1.0 4.0 0.02 0.61 0.61 96 1013.4
20260906213520 72 10 2.0 5.0 0.01 0.60 0.60 95 1013.4
20260906213034 72 33 0.0 6.0 0.00 0.58 0.58 95 1013.4
20260906212521 71 9 3.0 6.0 0.00 0.58 0.58 95 1013.2
20260906212018 72 57 1.0 5.0 0.00 0.58 0.58 95 1013.2
20260906211535 72 57 2.0 6.0 0.00 0.58 0.58 96 1013.2
20260906211018 71 71 2.0 6.0 0.00 0.58 0.58 96 1013.1
20260906210521 71 70 2.0 4.0 0.00 0.58 0.58 96 1013.1
20260906210040 71 74 2.0 4.0 0.00 0.58 0.58 96 1013.3
20260906205519 71 56 2.0 4.0 0.00 0.58 0.58 96 1013.4
20260906205018 71 0 1.0 5.0 0.00 0.58 0.58 96 1013.3
20260906204537 71 59 1.0 6.0 0.01 0.58 0.58 96 1013.1
20260906204018 71 94 2.0 8.0 0.03 0.58 0.58 96 1013.1
20260906203518 70 69 2.0 8.0 0.05 0.58 0.58 96 1013.2
20260906203035 70 40 2.0 7.0 0.06 0.58 0.58 96 1013.0
20260906202518 70 46 3.0 7.0 0.06 0.58 0.58 96 1013.3
20260906202019 70 67 2.0 5.0 0.06 0.58 0.58 96 1013.6
20260906201548 70 0 1.0 3.0 0.06 0.58 0.58 96 1013.6
20260906201020 70 0 0.0 3.0 0.06 0.58 0.58 96 1013.9
20260906200521 70 0 0.0 3.0 0.06 0.58 0.58 96 1014.0
20260906200035 70 54 0.0 6.0 0.06 0.58 0.58 96 1014.1
20260906195519 70 0 0.0 6.0 0.06 0.58 0.58 96 1014.3
20260906195021 70 69 2.0 5.0 0.06 0.58 0.58 96 1014.0
20260906194535 70 20 0.0 3.0 0.05 0.58 0.58 96 1014.3
20260906194017 69 46 0.0 2.0 0.03 0.56 0.56 96 1014.4
20260906193518 69 0 0.0 2.0 0.02 0.54 0.54 96 1014.8
20260906193033 69 15 0.0 4.0 0.01 0.52 0.52 96 1014.6
20260906192516 69 217 1.0 4.0 0.02 0.52 0.52 96 1015.1
20260906192018 69 173 1.0 3.0 0.02 0.52 0.52 96 1015.1
20260906191535 69 0 0.0 3.0 0.03 0.52 0.52 96 1014.7
20260906191018 69 53 0.0 3.0 0.03 0.52 0.52 96 1014.5
20260906190521 69 97 0.0 4.0 0.03 0.52 0.52 96 1014.6
20260906190049 69 49 1.0 4.0 0.04 0.52 0.52 96 1014.7
20260906185519 69 38 1.0 4.0 0.04 0.52 0.52 96 1014.5
20260906185020 68 17 1.0 4.0 0.05 0.52 0.52 96 1014.7
20260906184540 68 0 0.0 2.0 0.07 0.52 0.52 96 1015.0
20260906184018 68 0 0.0 2.0 0.07 0.52 0.52 96 1015.4
20260906183518 68 73 0.0 3.0 0.06 0.52 0.52 96 1015.7
20260906183044 68 0 1.0 3.0 0.07 0.52 0.52 96 1015.4
20260906182515 68 0 0.0 2.0 0.08 0.51 0.51 96 1015.3
20260906182021 68 23 0.0 3.0 0.09 0.51 0.51 96 1015.5
20260906181541 67 0 0.0 3.0 0.10 0.50 0.50 96 1015.8
20260906181024 67 30 1.0 3.0 0.14 0.50 0.50 96 1015.6
20260906180518 67 16 0.0 3.0 0.18 0.50 0.50 95 1015.9
20260906180035 67 0 1.0 3.0 0.21 0.49 0.49 95 1015.8
20260906175525 67 0 1.0 4.0 0.23 0.49 0.49 95 1015.6
20260906175019 67 0 1.0 4.0 0.24 0.48 0.48 96 1015.3
20260906174536 66 31 1.0 4.0 0.23 0.46 0.46 95 1015.4
20260906174019 66 0 1.0 4.0 0.23 0.46 0.46 94 1015.7
20260906173516 66 308 2.0 5.0 0.24 0.46 0.46 94 1016.0
20260906173046 66 348 1.0 5.0 0.23 0.44 0.44 94 1015.6
20260906172518 66 315 2.0 5.0 0.23 0.43 0.43 94 1015.6
20260906172020 66 342 2.0 5.0 0.21 0.41 0.41 94 1015.5
20260906171536 66 325 1.0 4.0 0.21 0.39 0.39 94 1015.9
20260906171021 67 14 2.0 4.0 0.18 0.35 0.35 93 1015.5
20260906170520 67 0 0.0 3.0 0.17 0.32 0.32 93 1015.5
20260906170036 67 0 1.0 3.0 0.15 0.28 0.28 93 1015.5
20260906165518 67 271 1.0 3.0 0.13 0.25 0.25 93 1015.3
20260906165020 67 0 0.0 3.0 0.13 0.24 0.24 93 1015.1
20260906164538 67 274 0.0 3.0 0.13 0.23 0.23 93 1014.5
20260906164019 67 0 0.0 4.0 0.13 0.22 0.22 93 1014.4
20260906163520 67 311 1.0 4.0 0.13 0.22 0.22 93 1014.4
20260906163038 67 350 1.0 3.0 0.12 0.21 0.21 92 1014.4
20260906162516 67 281 1.0 4.0 0.11 0.20 0.20 92 1014.6
20260906162018 67 355 1.0 4.0 0.11 0.19 0.19 92 1014.4
20260906161537 68 312 2.0 4.0 0.10 0.18 0.18 92 1014.7
20260906161019 68 65 0.0 3.0 0.08 0.16 0.16 92 1014.5
20260906160518 67 54 0.0 3.0 0.07 0.15 0.15 92 1014.4
20260906160036 67 0 0.0 4.0 0.05 0.13 0.13 91 1014.7
20260906155521 67 261 1.0 4.0 0.03 0.11 0.11 91 1014.7
20260906155020 67 273 1.0 4.0 0.03 0.11 0.11 90 1014.7
20260906154538 67 0 0.0 2.0 0.03 0.10 0.10 90 1014.5
20260906154019 67 0 0.0 2.0 0.02 0.09 0.09 90 1014.4
20260906153518 67 0 0.0 2.0 0.02 0.09 0.09 89 1014.2
20260906153037 67 137 0.0 2.0 0.02 0.09 0.09 89 1014.1
20260906152515 66 0 0.0 2.0 0.01 0.08 0.08 89 1013.9
20260906152021 66 0 0.0 5.0 0.01 0.08 0.08 90 1013.7
20260906151535 66 130 0.0 5.0 0.01 0.08 0.08 90 1013.7
20260906151023 66 138 2.0 5.0 0.01 0.08 0.08 90 1013.6
20260906150520 66 134 2.0 4.0 0.01 0.08 0.08 91 1013.5
20260906150037 66 136 0.0 2.0 0.01 0.08 0.08 91 1013.4
20260906145523 66 0 0.0 2.0 0.01 0.08 0.08 91 1013.5
20260906145023 66 0 0.0 3.0 0.02 0.08 0.08 91 1013.6
20260906144535 66 0 0.0 3.0 0.02 0.07 0.07 91 1013.5
20260906144019 66 113 0.0 4.0 0.02 0.07 0.07 91 1013.4
20260906143520 66 163 1.0 4.0 0.02 0.07 0.07 92 1013.7
20260906143034 66 0 0.0 4.0 0.03 0.07 0.07 92 1013.7
20260906142518 66 154 1.0 4.0 0.04 0.07 0.07 92 1013.6
20260906142019 66 0 0.0 3.0 0.05 0.07 0.07 92 1013.4
20260906141540 66 64 1.0 4.0 0.05 0.07 0.07 91 1013.6
20260906141021 66 0 0.0 4.0 0.05 0.07 0.07 91 1013.9
20260906140521 66 148 0.0 4.0 0.05 0.07 0.07 91 1013.9
20260906140045 66 0 0.0 4.0 0.05 0.07 0.07 90 1013.8
20260906135520 66 165 1.0 3.0 0.05 0.07 0.07 90 1013.5
20260906135018 66 292 0.0 1.0 0.04 0.06 0.06 90 1012.9
20260906134536 65 0 0.0 4.0 0.03 0.05 0.05 88 1013.0
20260906134016 66 270 0.0 5.0 0.03 0.05 0.05 88 1013.0
20260906133518 66 275 1.0 7.0 0.03 0.05 0.05 87 1013.2
20260906133046 66 303 3.0 9.0 0.02 0.04 0.04 86 1013.1
20260906132519 67 298 2.0 10.0 0.02 0.03 0.03 86 1013.1
20260906132018 67 289 4.0 10.0 0.01 0.02 0.02 85 1013.4
20260906131538 68 272 5.0 10.0 0.02 0.02 0.02 88 1013.7
20260906131020 69 250 1.0 4.0 0.02 0.02 0.02 90 1013.4
20260906130523 69 0 0.0 3.0 0.02 0.02 0.02 90 1013.1
20260906130044 69 275 0.0 4.0 0.02 0.02 0.02 90 1013.1
20260906125518 69 302 1.0 4.0 0.02 0.02 0.02 90 1012.9
20260906125016 69 275 2.0 5.0 0.02 0.02 0.02 91 1013.1
20260906124538 70 266 1.0 6.0 0.02 0.02 0.02 91 1013.0
20260906124018 70 290 1.0 7.0 0.02 0.02 0.02 92 1012.9
20260906123518 70 271 2.0 7.0 0.02 0.02 0.02 92 1012.8
20260906123041 70 225 1.0 8.0 0.02 0.02 0.02 91 1013.1
20260906122519 71 262 2.0 8.0 0.01 0.01 0.01 92 1012.8
20260906122021 71 279 3.0 7.0 0.01 0.01 0.01 92 1012.7
20260906121537 71 234 1.0 3.0 0.00 0.00 0.00 90 1012.8
20260906121019 71 0 0.0 3.0 0.00 0.00 0.00 90 1012.1
20260906120524 71 0 0.0 3.0 0.00 0.00 0.00 90 1012.2
20260906120044 71 268 1.0 3.0 0.00 0.00 0.00 89 1012.1
20260906115520 71 0 0.0 1.0 0.00 0.00 0.00 89 1012.1
20260906115019 71 242 0.0 1.0 0.00 0.00 0.00 88 1012.2
20260906114536 71 0 0.0 1.0 0.00 0.00 0.00 87 1011.9
20260906114015 70 0 0.0 1.0 0.00 0.00 0.00 85 1011.9
20260906113518 70 0 0.0 1.0 0.00 0.00 0.00 85 1011.8
20260906113040 70 0 0.0 0.0 0.00 0.00 0.00 85 1011.6
20260906112517 70 0 0.0 0.0 0.00 0.00 0.00 86 1011.7
20260906112020 70 0 0.0 0.0 0.00 0.00 0.00 86 1011.8
20260906111551 70 0 0.0 0.0 0.00 0.00 0.00 86 1011.9
20260906111019 71 0 0.0 0.0 0.00 0.00 0.00 87 1011.9
20260906110520 71 0 0.0 0.0 0.00 0.00 0.00 88 1011.8
20260906110039 71 0 0.0 0.0 0.00 0.00 0.00 88 1011.9
20260906105521 71 0 0.0 0.0 0.00 0.00 0.00 88 1011.8
20260906105020 71 0 0.0 0.0 0.00 0.00 0.00 88 1011.9
20260906104536 71 0 0.0 0.0 0.00 0.00 0.00 87 1011.8
20260906104019 71 0 0.0 0.0 0.00 0.00 0.00 87 1011.8
20260906103518 70 0 0.0 0.0 0.00 0.00 0.00 87 1011.8
20260906103036 70 0 0.0 0.0 0.00 0.00 0.00 86 1011.8
20260906102517 70 0 0.0 0.0 0.00 0.00 0.00 86 1011.8
20260906102018 70 0 0.0 0.0 0.00 0.00 0.00 86 1011.8
20260906101533 70 0 0.0 0.0 0.00 0.00 0.00 85 1011.8
20260906101017 70 0 0.0 0.0 0.00 0.00 0.00 84 1011.9
20260906100525 70 0 0.0 0.0 0.00 0.00 0.00 84 1011.8
20260906100036 70 0 0.0 0.0 0.00 0.00 0.00 83 1011.8
20260906095516 70 0 0.0 1.0 0.00 0.00 0.00 82 1011.9
20260906095016 70 0 0.0 1.0 0.00 0.00 0.00 82 1011.9
20260906094535 70 0 0.0 0.0 0.00 0.00 0.00 81 1011.9
20260906094016 69 0 0.0 0.0 0.00 0.00 0.00 77 1011.9
20260906093518 69 0 0.0 0.0 0.00 0.00 0.00 77 1011.9
20260906093046 69 0 0.0 0.0 0.00 0.00 0.00 77 1012.1
20260906092520 69 0 0.0 0.0 0.00 0.00 0.00 76 1012.2
20260906092017 69 0 0.0 0.0 0.00 0.00 0.00 77 1012.1
20260906091537 69 0 0.0 0.0 0.00 0.00 0.00 76 1012.1
20260906091017 69 0 0.0 0.0 0.00 0.00 0.00 77 1012.1
20260906090518 69 0 0.0 2.0 0.00 0.00 0.00 77 1012.0
20260906085519 69 242 0.0 2.0 0.00 0.00 0.00 79 1012.0
20260906085018 69 0 0.0 2.0 0.00 0.00 0.00 82 1012.0
20260906084543 70 0 0.0 2.0 0.00 0.00 0.00 85 1012.1
20260906084018 70 0 0.0 0.0 0.00 0.00 0.00 86 1012.2
20260906083516 70 0 0.0 1.0 0.00 0.00 0.00 86 1012.3
20260906083040 70 0 0.0 1.0 0.00 0.00 0.00 86 1012.4
20260906082518 70 0 0.0 1.0 0.00 0.00 0.00 86 1012.4
20260906082018 70 0 0.0 0.0 0.00 0.00 0.00 86 1012.4
20260906081536 70 0 0.0 1.0 0.00 0.00 0.00 86 1012.3
20260906081020 70 0 0.0 1.0 0.00 0.00 0.00 86 1012.3
20260906080522 70 0 0.0 2.0 0.00 0.00 0.00 86 1012.3
20260906080036 70 0 0.0 2.0 0.00 0.00 0.00 86 1012.3
20260906075517 70 0 0.0 2.0 0.00 0.00 0.00 86 1012.2
20260906075018 70 0 0.0 2.0 0.00 0.00 0.00 85 1012.2
20260906074548 71 242 0.0 2.0 0.00 0.00 0.00 85 1012.3
20260906074018 71 242 0.0 2.0 0.00 0.00 0.00 85 1012.4
20260906073518 71 0 0.0 3.0 0.00 0.00 0.00 85 1012.4
20260906073038 71 0 0.0 3.0 0.00 0.00 0.00 85 1012.3
20260906072518 71 242 0.0 4.0 0.00 0.00 0.00 85 1012.3
20260906072020 71 0 1.0 4.0 0.00 0.00 0.00 85 1012.3
20260906071535 71 251 0.0 4.0 0.00 0.00 0.00 85 1012.4
20260906071021 71 0 0.0 6.0 0.00 0.00 0.00 86 1012.3
20260906070517 71 270 1.0 6.0 0.00 0.00 0.00 86 1012.2
20260906070036 71 233 1.0 4.0 0.00 0.00 0.00 86 1012.2
20260906065519 71 0 0.0 3.0 0.00 0.00 0.00 86 1012.2
20260906065021 71 0 0.0 4.0 0.00 0.00 0.00 86 1012.2
20260906064543 71 0 0.0 4.0 0.00 0.00 0.00 86 1012.2
20260906064018 71 0 1.0 4.0 0.00 0.00 0.00 86 1012.2
20260906063521 71 0 0.0 3.0 0.00 0.00 0.00 86 1012.2
20260906063039 71 260 0.0 3.0 0.00 0.00 0.00 86 1012.2
20260906062521 71 246 1.0 3.0 0.00 0.00 0.00 87 1012.3
20260906062020 71 255 1.0 3.0 0.00 0.00 0.00 86 1012.4
20260906061547 71 252 0.0 4.0 0.00 0.00 0.00 86 1012.4
20260906061019 71 263 0.0 4.0 0.00 0.00 0.00 87 1012.4
20260906060520 71 271 1.0 4.0 0.00 0.00 0.00 87 1012.4
20260906060036 71 263 1.0 4.0 0.00 0.00 0.00 87 1012.4
20260906055517 71 265 0.0 4.0 0.00 0.00 0.00 87 1012.4
20260906055020 71 222 1.0 6.0 0.00 0.00 0.00 87 1012.4
20260906054539 71 263 1.0 6.0 0.00 0.00 0.00 87 1012.4
20260906054018 71 286 2.0 6.0 0.00 0.00 0.00 87 1012.5
20260906053519 71 0 1.0 4.0 0.00 0.00 0.00 87 1012.6
20260906053034 71 284 0.0 4.0 0.00 0.00 0.00 87 1012.7
20260906052518 71 258 1.0 7.0 0.00 0.00 0.00 87 1012.8
20260906052020 71 245 1.0 7.0 0.00 0.00 0.00 87 1012.8
20260906051540 71 238 2.0 7.0 0.00 0.00 0.00 88 1012.8
20260906051020 71 244 1.0 7.0 0.00 0.00 0.00 87 1012.9
20260906050519 71 252 2.0 7.0 0.00 0.00 0.00 87 1013.0
20260906050040 71 240 1.0 6.0 0.00 0.00 0.00 88 1012.9
20260906045517 71 262 1.0 4.0 0.00 0.00 0.00 87 1013.0
20260906045018 71 0 1.0 4.0 0.00 0.00 0.00 87 1013.0
20260906044534 71 237 1.0 6.0 0.00 0.00 0.00 87 1013.0
20260906044018 71 263 1.0 6.0 0.00 0.00 0.00 87 1012.9
20260906043518 71 256 2.0 6.0 0.00 0.00 0.00 87 1012.7
20260906043038 71 258 2.0 6.0 0.00 0.00 0.00 87 1012.7
20260906042520 72 262 1.0 6.0 0.00 0.00 0.00 86 1012.8
20260906042020 72 281 1.0 6.0 0.00 0.00 0.00 86 1012.8
20260906041549 72 275 1.0 8.0 0.00 0.00 0.00 86 1012.8
20260906041021 72 258 2.0 8.0 0.00 0.00 0.00 85 1012.7
20260906040520 72 235 2.0 8.0 0.00 0.00 0.00 85 1012.7
20260906040038 71 232 2.0 6.0 0.00 0.00 0.00 85 1012.7
20260906035522 72 267 1.0 6.0 0.00 0.00 0.00 85 1012.5
20260906035019 71 263 2.0 6.0 0.00 0.00 0.00 85 1012.7
20260906034543 71 236 1.0 7.0 0.00 0.00 0.00 86 1012.7
20260906034023 72 273 2.0 7.0 0.00 0.00 0.00 86 1012.6
20260906033518 72 267 2.0 7.0 0.00 0.00 0.00 87 1012.5
20260906033044 72 0 1.0 7.0 0.00 0.00 0.00 87 1012.5
20260906032519 72 259 3.0 7.0 0.00 0.00 0.00 87 1012.4
20260906032020 72 249 3.0 7.0 0.00 0.00 0.00 87 1012.3
20260906031539 72 227 1.0 7.0 0.00 0.00 0.00 87 1012.2
20260906031022 72 264 2.0 8.0 0.00 0.00 0.00 87 1012.2
20260906030519 72 237 3.0 8.0 0.00 0.00 0.00 87 1012.1
20260906030043 72 211 3.0 8.0 0.00 0.00 0.00 87 1012.1
20260906025519 72 248 2.0 9.0 0.00 0.00 0.00 87 1012.1
20260906025020 72 264 3.0 9.0 0.00 0.00 0.00 87 1012.1
20260906024537 72 259 4.0 9.0 0.00 0.00 0.00 87 1012.1
20260906024018 72 264 3.0 7.0 0.00 0.00 0.00 87 1012.0
20260906023520 72 271 1.0 7.0 0.00 0.00 0.00 88 1012.1
20260906023038 72 274 2.0 10.0 0.00 0.00 0.00 88 1012.0
20260906022516 72 273 3.0 10.0 0.00 0.00 0.00 88 1012.0
20260906022021 73 278 3.0 11.0 0.00 0.00 0.00 88 1012.0
20260906021537 73 269 4.0 11.0 0.00 0.00 0.00 88 1012.1
20260906021020 73 223 4.0 10.0 0.00 0.00 0.00 87 1012.1
20260906020518 73 234 3.0 13.0 0.00 0.00 0.00 87 1012.2
20260906020039 73 262 3.0 13.0 0.00 0.00 0.00 87 1012.3
20260906015520 73 242 7.0 13.0 0.00 0.00 0.00 86 1012.2
20260906015019 74 282 5.0 10.0 0.00 0.00 0.00 86 1012.2
20260906014546 74 243 5.0 10.0 0.00 0.00 0.00 85 1012.2
20260906014020 74 240 4.0 14.0 0.00 0.00 0.00 85 1012.1
20260906013522 74 259 6.0 14.0 0.00 0.00 0.00 85 1012.1
20260906013037 74 238 6.0 14.0 0.00 0.00 0.00 84 1012.0
20260906012516 74 264 5.0 14.0 0.00 0.00 0.00 84 1012.0
20260906012016 75 224 6.0 13.0 0.00 0.00 0.00 84 1012.0
20260906011543 75 246 5.0 12.0 0.00 0.00 0.00 83 1012.0
20260906011017 75 273 6.0 12.0 0.00 0.00 0.00 82 1011.9
20260906010524 76 234 6.0 12.0 0.00 0.00 0.00 81 1011.8
20260906010058 76 260 6.0 12.0 0.00 0.00 0.00 80 1011.8
20260906005517 76 259 5.0 13.0 0.00 0.00 0.00 80 1011.9
20260906005021 76 231 6.0 13.0 0.00 0.00 0.00 81 1011.9
20260906004543 75 269 5.0 13.0 0.00 0.00 0.00 82 1011.8
20260906004024 75 266 5.0 13.0 0.00 0.00 0.00 82 1011.9
20260906003521 75 229 7.0 13.0 0.00 0.00 0.00 82 1011.8
20260906003042 75 273 3.0 10.0 0.00 0.00 0.00 82 1011.9
20260906002519 75 248 4.0 11.0 0.00 0.00 0.00 82 1012.0
20260906002018 75 256 5.0 11.0 0.00 0.00 0.00 81 1011.9
20260906001555 76 227 4.0 12.0 0.00 0.00 0.00 80 1011.9
20260906001025 76 231 5.0 12.0 0.00 0.00 0.00 80 1011.9
20260906000520 76 257 3.0 11.0 0.00 0.00 0.00 80 1011.8
20260906000036 76 295 3.0 13.0 0.00 0.00 0.00 80 1011.9
20260905235519 76 273 6.0 13.0 0.00 0.00 0.00 78 1011.8
20260905235024 77 264 6.0 14.0 0.00 0.00 0.00 78 1011.8
20260905234536 77 256 6.0 14.0 0.00 0.00 0.00 77 1011.9
20260905234018 77 271 7.0 12.0 0.00 0.00 0.00 77 1011.9
20260905233517 77 271 5.0 14.0 0.00 0.00 0.00 77 1011.9
20260905233035 78 278 6.0 14.0 0.00 0.00 0.00 75 1011.9
20260905232518 78 223 7.0 14.0 0.00 0.00 0.00 74 1011.9
20260905232019 78 221 6.0 12.0 0.00 0.00 0.00 74 1011.9
20260905231542 78 274 7.0 12.0 0.00 0.00 0.00 73 1011.8
20260905231020 78 263 5.0 12.0 0.00 0.00 0.00 73 1011.9
20260905230520 78 224 5.0 12.0 0.00 0.00 0.00 74 1011.9
20260905230039 78 259 6.0 13.0 0.00 0.00 0.00 73 1011.9
20260905225520 78 227 5.0 13.0 0.00 0.00 0.00 74 1011.9